[[{"header":{"parameterUnit":"m.s-1","parameterCategory":1,"la1":30.2991,"la2":30.254,"lo1":-89.0895,"lo2":-89.0444,"dy":0.0017,"dx":0.0017,"nx":28,"ny":28,"refTime":"2024-12-12T03:00:00:Z","depth":0,"parameterNumber":2,"parameterNumberName":"U-component_of_WINDS"},"data":[0,0,0,0,0,0,0,0,0,0,0,0,0,0,0,0,0,0,0,0,0,0,0,0,0,0,0,0,0,0,0,0,0,0,0,0,0,0,0,0,0,0,0,0,0,0,0,0,0,0,0,0,0,0,0,0,0,0,-5.1354,-5.1354,0,-5.1346,-5.1346,-5.1346,-5.1188,-5.1184,-5.118,-5.1176,-5.1171,-5.1174,-5.1178,0,0,0,0,0,0,0,0,0,0,0,0,0,-5.1233,-5.1237,-5.1354,-5.1354,-5.1354,-5.1346,-5.1346,-5.1346,-5.1188,-5.1184,-5.1179,-5.1174,-5.1169,-5.1174,-5.1178,0,0,0,0,0,0,0,0,0,0,0,0,0,-5.1262,-5.1238,-5.1354,-5.1274,-5.1267,-5.1346,-5.1346,-5.1346,-5.119,-5.1183,-5.1177,-5.1172,-5.1168,-5.1173,-5.1179,-5.1335,0,0,-5.1195,-5.1198,0,0,0,0,0,0,0,0,-5.1261,-5.1267,-5.1286,-5.128,-5.1272,-5.1262,-5.1302,-5.1342,-5.1191,-5.1219,-5.1176,-5.1169,-5.1206,-5.1208,-5.122,-5.1334,-5.1334,-5.1196,-5.1199,-5.1202,-5.1203,0,0,0,0,0,0,0,-5.1259,-5.1266,-5.1351,-5.1286,-5.1278,-5.1239,-5.1236,-5.1309,-5.1247,-5.1216,-5.1205,-5.1206,-5.1201,-5.1215,-5.1219,-5.1334,-5.1196,-5.1201,-5.1204,-5.1206,-5.1576,-5.1582,0,0,0,0,0,0,-5.1268,-5.1265,-5.1351,-5.1351,-5.1251,-5.1246,-5.1243,-5.1271,-5.1246,-5.1236,-5.1211,-5.1198,-5.1209,-5.1212,-5.1218,-5.1399,-5.1202,-5.1207,-5.121,-5.1569,-5.1577,-5.1584,0,0,0,0,0,0,-5.1266,-5.1277,-5.1351,-5.1305,-5.1311,-5.1255,-5.1287,-5.1274,-5.1288,-5.1242,-5.123,-5.1237,-5.1204,-5.121,-5.1307,-5.1396,-5.1209,-5.1214,-5.1562,-5.1572,-5.1581,-5.1762,0,0,0,0,0,0,-5.1263,-5.1277,-5.1335,-5.1307,-5.1315,-5.144,-5.1293,-5.1278,-5.1298,-5.1281,-5.1263,-5.1254,-5.12,-5.1299,-5.1312,-5.1401,-5.1218,-5.1553,-5.1566,-5.1578,-5.1748,-5.1777,-5.1802,0,0,0,0,0,-5.1259,-5.1388,-5.1339,-5.135,-5.1386,-5.1446,-5.145,-5.1384,-5.1306,-5.1364,-5.1334,-5.1254,-5.1384,-5.131,-5.1323,-5.1415,-5.1547,-5.1562,-5.1577,-5.1736,-5.1772,-5.1801,0,0,0,0,0,0,-5.1429,-5.1382,-5.1328,-5.1451,-5.1454,-5.1419,-5.1491,-5.1424,-5.1449,-5.1433,-5.1351,-5.1348,-5.1458,-5.1445,-5.1364,-5.1565,-5.1452,-5.147,-5.1569,-5.1602,-5.1628,-5.1629,-5.1223,0,0,0,0,0,-5.148,-5.1532,-5.1489,-5.1602,-5.1605,-5.1549,-5.1572,-5.1521,-5.152,-5.1521,-5.1498,-5.1501,-5.1542,-5.1571,-5.1606,-5.1745,-5.1739,-5.1815,-5.1842,-5.1864,-5.1881,-5.1953,-5.1987,-5.1632,-5.1632,-5.1632,0,0,-5.1588,-5.1569,-5.1607,-5.1635,-5.1631,-5.1687,-5.155,-5.1615,-5.1656,-5.1531,-5.162,-5.1604,-5.1601,-5.172,-5.1771,-5.1713,-5.1977,-5.1883,-5.1901,-5.1906,-5.1972,-5.2006,-5.2036,-5.1642,-5.1641,-5.1639,0,0,-5.1812,-5.1803,-5.1896,-5.1894,-5.1889,-5.185,-5.1872,-5.1848,-5.1832,-5.192,-5.1827,-5.1874,-5.1947,-5.1949,-5.196,-5.2185,-5.2113,-5.2199,-5.234,-5.2412,-5.244,-5.2464,-5.2545,-5.2574,-5.2215,-5.2216,-5.2216,0,-5.1947,-5.2027,-5.1952,-5.2023,-5.2039,-5.1926,-5.202,-5.2022,-5.203,-5.2043,-5.1978,-5.2067,-5.2058,-5.2175,-5.223,-5.2242,-5.2266,-5.2201,-5.2441,-5.2465,-5.2487,-5.2563,-5.2593,-5.2226,-5.2225,-5.2224,-5.2223,0,-5.2192,-5.2249,-5.2325,-5.2334,-5.2357,-5.244,-5.2378,-5.2411,-5.2358,-5.2326,-5.2418,-5.2402,-5.2433,-5.2456,-5.2406,-5.2567,-5.2531,-5.2456,-5.2341,-5.2532,-5.2602,-5.2631,-5.2241,-5.2238,-5.2234,-5.2232,0,0,-5.2525,-5.2491,-5.252,-5.2522,-5.2508,-5.2551,-5.2628,-5.2656,-5.2686,-5.2695,-5.2758,-5.2822,-5.2751,-5.2763,-5.2712,-5.2775,-5.2954,-5.269,-5.2689,-5.2741,-5.3131,-5.3189,-5.3224,-5.2905,-5.2911,-5.2915,-5.3132,0,-5.2742,-5.2871,-5.2806,-5.2943,-5.2995,-5.2889,-5.2956,-5.2955,-5.2927,-5.2967,-5.2936,-5.2983,-5.2885,-5.2892,-5.295,-5.292,-5.3032,-5.2903,-5.2964,-5.2967,-5.2969,-5.3261,-5.3322,-5.3528,-5.3158,-5.3163,-5.3166,0,-5.3013,-5.3032,-5.3175,-5.315,-5.3169,-5.3231,-5.3251,-5.3291,-5.3287,-5.3262,-5.3276,-5.321,-5.3284,-5.3169,-5.3271,-5.3185,-5.3206,-5.3195,-5.3202,-5.3206,-5.3079,-5.3273,-5.3591,-5.3623,-5.3209,-5.3205,-5.3202,0,-5.3242,-5.3303,-5.3396,-5.3401,-5.3375,-5.3421,-5.3412,-5.3402,-5.3424,-5.3442,-5.3455,-5.3482,-5.3498,-5.3521,-5.3463,-5.3385,-5.3573,-5.3454,-5.3555,-5.3557,-5.3601,-5.3599,-5.3928,-5.3613,-5.3613,-5.3612,-5.3612,0,-5.3492,-5.3583,-5.3498,-5.3556,-5.3655,-5.358,-5.368,-5.366,-5.3652,-5.3704,-5.3614,-5.3665,-5.3586,-5.3629,-5.3584,-5.3676,-5.3683,-5.3666,-5.3653,-5.3674,-5.3677,-5.3688,-5.3672,-5.362,-5.3618,-5.3617,-5.3615,0,-5.3765,-5.3712,-5.3806,-5.3773,-5.3767,-5.3842,-5.3813,-5.3865,-5.3831,-5.3898,-5.3909,-5.3856,-5.3902,-5.3846,-5.3888,-5.3858,-5.3982,-5.3947,-5.3983,-5.3973,-5.4078,-5.407,-5.4426,-5.4469,-5.4127,-5.4131,-5.4133,0,-5.3928,-5.3996,-5.397,-5.3998,-5.3994,-5.404,-5.4061,-5.3989,-5.4015,-5.4015,-5.4068,-5.4106,-5.4133,-5.4212,-5.4177,-5.4208,-5.4174,-5.4297,-5.4179,-5.4198,-5.4177,-5.4174,-5.4181,-5.4322,-5.4326,-5.4329,-5.4332,0,-5.4224,-5.4194,-5.4227,-5.4252,-5.4279,-5.4295,-5.4304,-5.4332,-5.4257,-5.429,-5.4336,-5.4357,-5.4398,-5.4438,-5.4459,-5.4451,-5.438,-5.4369,-5.4395,-5.4418,-5.4436,-5.4428,-5.405,-5.4362,-5.4359,-5.4357,-5.4355,-5.4354,-5.4448,-5.4503,-5.4493,-5.4533,-5.4532,-5.4542,-5.4589,-5.456,-5.4596,-5.4624,-5.4579,-5.4637,-5.4631,-5.4653,-5.4652,-5.4696,-5.4644,-5.468,-5.469,-5.47,-5.4716,-5.4428,-5.47,-5.4699,-5.4698,-5.4697,-5.4697,0,-5.4739,-5.4727,-5.4765,-5.478,-5.4811,-5.474,-5.4746,-5.4778,-5.4829,-5.4829,-5.4857,-5.491,-5.4947,-5.4915,-5.4946,-5.4988,-5.4956,-5.4999,-5.4995,-5.4995,-5.4761,-5.4737,-5.5024,-5.5024,-5.5024,-5.5024,-5.5024,-5.5023,-5.4895,-5.4984,-5.4953,-5.5042,-5.5028,-5.5083,-5.5093,-5.5103,-5.5102,-5.5165,-5.5195,-5.5173,-5.5161,-5.519,-5.5221,-5.5211,-5.5227,-5.5281,-5.526,-5.5043,-5.5011,-5.498,-5.4957,-5.5285,-5.5286,-5.5489,-5.5491,-5.5493]},{"header":{"parameterUnit":"m.s-1","parameterCategory":1,"la1":30.2991,"la2":30.254,"lo1":-89.0895,"lo2":-89.0444,"dy":0.0017,"dx":0.0017,"nx":28,"ny":28,"refTime":"2024-12-12T03:00:00:Z","depth":0,"parameterNumber":3,"parameterNumberName":"V-component_of_WINDS"},"data":[0,0,0,0,0,0,0,0,0,0,0,0,0,0,0,0,0,0,0,0,0,0,0,0,0,0,0,0,0,0,0,0,0,0,0,0,0,0,0,0,0,0,0,0,0,0,0,0,0,0,0,0,0,0,0,0,0,0,-2.398,-2.398,0,-2.3976,-2.3976,-2.3976,-2.3925,-2.3924,-2.3923,-2.3921,-2.3917,-2.3919,-2.392,0,0,0,0,0,0,0,0,0,0,0,0,0,-2.3944,-2.3945,-2.398,-2.398,-2.398,-2.3976,-2.3976,-2.3976,-2.3925,-2.3924,-2.3922,-2.3921,-2.3917,-2.3918,-2.392,0,0,0,0,0,0,0,0,0,0,0,0,0,-2.3952,-2.3945,-2.398,-2.3954,-2.3952,-2.3976,-2.3976,-2.3976,-2.3926,-2.3924,-2.3922,-2.392,-2.3917,-2.3918,-2.392,-2.3969,0,0,-2.3925,-2.3926,0,0,0,0,0,0,0,0,-2.3951,-2.3953,-2.3958,-2.3956,-2.3954,-2.3949,-2.3962,-2.3973,-2.3926,-2.3936,-2.3921,-2.3919,-2.393,-2.393,-2.3933,-2.3968,-2.3968,-2.3925,-2.3926,-2.3927,-2.3927,0,0,0,0,0,0,0,-2.3951,-2.3953,-2.3979,-2.3958,-2.3956,-2.3943,-2.3942,-2.3964,-2.3944,-2.3935,-2.3931,-2.3931,-2.3928,-2.3932,-2.3933,-2.3968,-2.3925,-2.3926,-2.3927,-2.3928,-2.4041,-2.4043,0,0,0,0,0,0,-2.3954,-2.3953,-2.3979,-2.3978,-2.3948,-2.3945,-2.3944,-2.3953,-2.3943,-2.394,-2.3933,-2.3929,-2.393,-2.3931,-2.3933,-2.3988,-2.3927,-2.3928,-2.3929,-2.4039,-2.4041,-2.4044,0,0,0,0,0,0,-2.3953,-2.3957,-2.3979,-2.3965,-2.3966,-2.3948,-2.3958,-2.3953,-2.3957,-2.3942,-2.3938,-2.3941,-2.3929,-2.393,-2.396,-2.3987,-2.3929,-2.393,-2.4037,-2.404,-2.4043,-2.41,0,0,0,0,0,0,-2.3953,-2.3957,-2.3976,-2.3965,-2.3967,-2.4006,-2.396,-2.3955,-2.396,-2.3955,-2.3948,-2.3945,-2.3927,-2.3957,-2.3961,-2.3989,-2.3932,-2.4034,-2.4038,-2.4042,-2.4096,-2.4105,-2.4112,0,0,0,0,0,-2.3951,-2.3992,-2.3977,-2.398,-2.399,-2.4008,-2.4009,-2.3988,-2.3963,-2.3981,-2.3971,-2.3945,-2.3984,-2.3961,-2.3965,-2.3993,-2.4032,-2.4037,-2.4041,-2.4092,-2.4103,-2.4112,0,0,0,0,0,0,-2.4007,-2.3991,-2.3973,-2.4012,-2.4012,-2.4,-2.4022,-2.4,-2.4007,-2.4002,-2.3975,-2.3974,-2.4007,-2.4003,-2.3978,-2.4039,-2.4003,-2.4009,-2.4041,-2.4051,-2.4059,-2.406,-2.3933,0,0,0,0,0,-2.4024,-2.4039,-2.4024,-2.406,-2.4061,-2.4042,-2.4048,-2.4032,-2.403,-2.403,-2.4022,-2.4022,-2.4033,-2.4042,-2.4052,-2.4094,-2.4092,-2.4116,-2.4124,-2.4131,-2.4136,-2.4157,-2.4168,-2.4058,-2.4058,-2.4058,0,0,-2.4058,-2.4051,-2.4063,-2.4071,-2.4069,-2.4085,-2.4042,-2.4062,-2.4073,-2.4033,-2.406,-2.4054,-2.4052,-2.4088,-2.4103,-2.4085,-2.4166,-2.4137,-2.4142,-2.4144,-2.4163,-2.4173,-2.4183,-2.4062,-2.4061,-2.4061,0,0,-2.413,-2.4127,-2.4156,-2.4154,-2.4151,-2.4137,-2.4144,-2.4135,-2.4129,-2.4155,-2.4125,-2.4139,-2.416,-2.4159,-2.4162,-2.4231,-2.4208,-2.4235,-2.4279,-2.43,-2.4309,-2.4316,-2.4341,-2.435,-2.424,-2.4241,-2.4241,0,-2.4174,-2.4198,-2.4173,-2.4195,-2.4198,-2.4162,-2.419,-2.419,-2.4191,-2.4194,-2.4174,-2.4198,-2.4194,-2.4229,-2.4246,-2.4249,-2.4256,-2.4236,-2.431,-2.4317,-2.4324,-2.4346,-2.4356,-2.4244,-2.4243,-2.4243,-2.4243,0,-2.4252,-2.4268,-2.4292,-2.4293,-2.4299,-2.4324,-2.4303,-2.4312,-2.4294,-2.4283,-2.431,-2.4303,-2.4311,-2.4318,-2.4301,-2.435,-2.4338,-2.4314,-2.4278,-2.4338,-2.4359,-2.4367,-2.4249,-2.4247,-2.4246,-2.4246,0,0,-2.436,-2.4345,-2.4354,-2.4353,-2.4346,-2.4359,-2.4381,-2.4388,-2.4396,-2.4397,-2.4416,-2.4433,-2.441,-2.4413,-2.4396,-2.4414,-2.4469,-2.4387,-2.4387,-2.4403,-2.4521,-2.454,-2.455,-2.4453,-2.4455,-2.4456,-2.4521,0,-2.4429,-2.4467,-2.4444,-2.4485,-2.45,-2.4464,-2.4484,-2.4482,-2.4471,-2.4482,-2.447,-2.4483,-2.4452,-2.4453,-2.447,-2.4459,-2.4492,-2.4454,-2.4469,-2.447,-2.4471,-2.4561,-2.4581,-2.4643,-2.453,-2.4531,-2.4532,0,-2.4515,-2.4519,-2.4561,-2.4549,-2.4555,-2.4573,-2.4576,-2.4587,-2.4583,-2.4574,-2.4577,-2.4554,-2.4575,-2.4539,-2.4567,-2.4542,-2.4546,-2.4542,-2.4544,-2.4545,-2.4505,-2.4565,-2.4663,-2.4672,-2.4545,-2.4544,-2.4543,0,-2.4589,-2.4605,-2.4632,-2.4632,-2.4619,-2.4633,-2.4628,-2.4622,-2.4627,-2.463,-2.4633,-2.4639,-2.4642,-2.4647,-2.4627,-2.4602,-2.4657,-2.462,-2.465,-2.4651,-2.4664,-2.4664,-2.4764,-2.4667,-2.4667,-2.4667,-2.4667,0,-2.4668,-2.4696,-2.4664,-2.4681,-2.471,-2.4684,-2.4713,-2.4705,-2.4699,-2.4714,-2.4683,-2.4697,-2.4669,-2.468,-2.4664,-2.469,-2.4691,-2.4685,-2.468,-2.4687,-2.4688,-2.4691,-2.4686,-2.4669,-2.4669,-2.4668,-2.4668,0,-2.4757,-2.4737,-2.4764,-2.4749,-2.4746,-2.4768,-2.4755,-2.477,-2.4757,-2.4775,-2.4777,-2.4757,-2.4768,-2.4748,-2.4757,-2.4746,-2.4782,-2.477,-2.4783,-2.478,-2.4811,-2.4808,-2.4917,-2.493,-2.4825,-2.4826,-2.4826,0,-2.4809,-2.4829,-2.4816,-2.4822,-2.4819,-2.4831,-2.4836,-2.481,-2.4816,-2.4812,-2.4827,-2.4835,-2.4841,-2.486,-2.4846,-2.4852,-2.4841,-2.4878,-2.4842,-2.4848,-2.4841,-2.484,-2.4842,-2.4886,-2.4888,-2.4889,-2.4889,0,-2.4904,-2.4892,-2.49,-2.4903,-2.4909,-2.4911,-2.4911,-2.4918,-2.4891,-2.4899,-2.4909,-2.4914,-2.4922,-2.4931,-2.4933,-2.4928,-2.4905,-2.4901,-2.4908,-2.4916,-2.4923,-2.4919,-2.4804,-2.4899,-2.4898,-2.4897,-2.4897,-2.4896,-2.4975,-2.4991,-2.4983,-2.4992,-2.4989,-2.4989,-2.5001,-2.4989,-2.4997,-2.5002,-2.4986,-2.5,-2.4994,-2.4995,-2.4992,-2.5003,-2.4986,-2.4997,-2.5,-2.5003,-2.5008,-2.4921,-2.5003,-2.5003,-2.5003,-2.5003,-2.5002,0,-2.5068,-2.5061,-2.5069,-2.5069,-2.5076,-2.5052,-2.5049,-2.5057,-2.507,-2.5066,-2.5071,-2.5083,-2.5091,-2.5077,-2.5082,-2.5093,-2.5082,-2.5096,-2.5095,-2.5094,-2.5023,-2.5016,-2.5104,-2.5104,-2.5104,-2.5104,-2.5104,-2.5104,-2.5117,-2.5141,-2.5129,-2.5151,-2.5144,-2.5157,-2.5158,-2.5157,-2.5154,-2.5168,-2.5174,-2.5165,-2.5157,-2.5161,-2.5167,-2.5163,-2.5166,-2.5183,-2.5175,-2.5109,-2.5099,-2.5089,-2.5083,-2.5184,-2.5184,-2.5245,-2.5246,-2.5246]}]]